Regional Weather Roundup
Issued by NWS Sterling, VA

Home | Current Version | Previous Version | Graphics & Text | Print | Product List | Glossary On
Versions: 1 2 3 4 5 6 7 8 9 10 11 12 13 14 15 16 17 18 19 20 21 22 23 24 25 26 27
000
ASUS41 KLWX 292110
RWRLWX

REGIONAL WEATHER ROUNDUP
NATIONAL WEATHER SERVICE BALTIMORE MD/WASHINGTON DC
500 PM EDT FRI JUL 29 2016

Note: "FAIR" indicates few or no clouds below 12,000 feet
with no significant weather and/or obstructions to visibility.
 TC=TEMPERATURE CELSIUS

 * =Non NWS site. Station does not report precipitation (e.g. rain,
    snow, etc.), thunder, or fog.

DCZ001-MDZ009-015-VAZ040>042-051-053>054-292200-
WASHINGTON METRO

CITY           SKY/WX    TMP DP  RH WIND       PRES   REMARKS
WASHINGTON NAT FAIR      90  69  50 S5        29.87S HX  94
DULLES         FAIR      88  66  48 VRB5      29.88F HX  90
ANDREWS AFB    SUNNY     88  67  49 W5        29.87S HX  90
LEESBURG*      FAIR      90  72  55 W6G17     29.90S HX  96
MANASSAS*      MOSUNNY   90  66  45 CALM      29.88F HX  92
GAITHERSBURG*  CLOUDY    84  70  61 NW6       29.92S

$$

MDZ006>007-011-014-292200-
BALTIMORE METRO

CITY           SKY/WX    TMP DP  RH WIND       PRES   REMARKS
BWI AIRPORT    PTSUNNY   87  68  52 E7        29.86R HX  90
MD SCIENCE CTR   N/A     88  69  53 MISG      29.87R HX  92
MARTIN STATE   MOSUNNY   88  75  66 E5        29.87S HX  97
ANNAPOLIS      SUNNY     85  73  67 SE8       29.87R HX  91
FORT MEADE*    PTSUNNY   86  72  62 W6        29.88S HX  92

$$

MDZ012-015-019>023-292200-
MARYLAND EASTERN SHORE

CITY           SKY/WX    TMP DP  RH WIND       PRES   REMARKS
OCEAN CITY     CLOUDY    80  72  76 E8        29.87R
SALISBURY      NOT AVBL
BAY BRIDGE AP* SUNNY     86  70  58 W3        29.87R HX  90
CAMBRIDGE*     SUNNY     82  70  65 N5        29.87S
EASTON*        MOSUNNY   88  75  66 NW7       29.90S HX  97

$$

MDZ017>025-292200-
SOUTHERN MARYLAND

CITY           SKY/WX    TMP DP  RH WIND       PRES   REMARKS
PATUXENT RIVER MOSUNNY   86  69  56 CALM      29.87S HX  90
ST INIGOES     MOSUNNY   88  69  53 VRB3      29.86F HX  92
LEONARDTOWN*   SUNNY     84  66  54 CALM      29.89

$$

MDZ003>005-292200-
NORTH CENTRAL MARYLAND

CITY           SKY/WX    TMP DP  RH WIND       PRES   REMARKS
FREDERICK*     PTSUNNY   88  72  58 VRB6      29.90S HX  94
HAGERSTOWN APT MOSUNNY   89  67  47 W8        29.89S HX  92

$$

MDZ501>502-292200-
WESTERN MARYLAND

CITY           SKY/WX    TMP DP  RH WIND       PRES   REMARKS
OAKLAND*         N/A     73  64  73 W6        30.03F
CUMBERLAND*    MOSUNNY   86  68  54 W8        29.95R

$$

VAZ025>031-292200-
SHENANDOAH VALLEY

CITY           SKY/WX    TMP DP  RH WIND       PRES   REMARKS
WINCHESTER*    FAIR      88  66  48 NW3       29.91S HX  90
FRONT ROYAL*   FAIR      86  68  54 N6        29.90S
LURAY*         NOT AVBL
NEW MARKET*    MOCLDY   N/A N/A N/A CALM      29.91S
STAUNTON*      FAIR      83  67  58 CALM      29.97S
WAYNESBORO*    FAIR      81  67  63 W3        29.97S

$$

WVZ021-048>050-054>055-292200-
EASTERN WEST VIRGINIA PANHANDLE

CITY           SKY/WX    TMP DP  RH WIND       PRES   REMARKS
MARTINSBURG    FAIR      89  66  46 VRB6      29.89S HX  91
PETERSBURG*    FAIR      87  67  50 CALM      29.93S

$$

VAZ036>039-050-292200-
CENTRAL FOOTHILLS

CITY           SKY/WX    TMP DP  RH WIND       PRES   REMARKS
CHARLOTTESVILL CLOUDY    89  66  46 N5        29.91S HX  91
CULPEPER*      FAIR      88  68  51 CALM      29.91R HX  91
ORANGE*          N/A     88  68  51 CALM      29.92S HX  91
GORDONSVILLE*  CLOUDY    84  72  66 CALM      29.91R HX  90
WARRENTON*     FAIR      89  61  38 NW6       29.90R

$$

VAZ055>057-292200-
NORTH AND CENTRAL PIEDMONT

CITY           SKY/WX    TMP DP  RH WIND       PRES   REMARKS
FREDERICKSBRG*   N/A     88  70  53 CALM      29.88S HX  93
STAFFORD*      FAIR      87  67  50 W3        29.93R HX  90

$$

NCZ024-NYZ072-PAZ021-071-VAZ022-071-292200-
OTHER REGIONAL OBSERVATIONS

CITY           SKY/WX    TMP DP  RH WIND       PRES   REMARKS
NEW YORK CITY  SUNNY     83  68  60 E5        29.86F
PHILADELPHIA   MOSUNNY   86  65  49 N7        29.86R
PITTSBURGH     PTSUNNY   83  63  50 CALM      29.92F
ROANOKE        FAIR      89  65  44 NW9       29.96S HX  91
RICHMOND       FAIR      86  70  58 NW3       29.89S HX  90
RALEIGH        MOSUNNY   89  69  51 N3        29.91F HX  93

$$

ANZ530>537-292200-
MARINE OBSERVATIONS

STATION/POSITION TIME  TEMP    WIND        PRES
                       AIR SEA DIR/SP/G
                 (UTC) (F)     (DEG/KT/KT) (MB)
THOMAS PT LIGHT  2100   83 85  150/  5/  6 1012.8R
BALT KEY BRIDGE  2048   84     110/  8/  9 1011.1R
COVE POINT       2048   82      30/  2/  4 1012.1F
LEWISETTA        2048   84 87  330/  3/  4 1011.3S
SOLOMONS ISLAND  2042   86 85  250/  4/  6   N/A
PINEY POINT      2048          320/  5/  7   N/A

$$





USA.gov is the U.S. government's official web portal to all federal, state and local government web resources and services.